Location: Rochester
(43.1610°N, 77.6109°W)
Time: 03:11:54
(UTC-05:00)

CUTE 1.7 + AOD 2 - Pass Details

Date: 20 October 2021
Orbit: 592 x 610 km, 97.6° (Epoch: 28 November)

Event Time Altitude Azimuth Distance (km) Brightness Sun altitude
Rises 06:22:24 0° 359° (N) 2,884 ? -13.1°
Reaches altitude 10° 06:24:55 10° 346° (NNW) 1,975 ? -12.7°
Maximum altitude 06:28:19 23° 293° (WNW) 1,296 ? -12.0°
Enters shadow 06:31:06 13° 246° (WSW) 1,773 ? -11.5°
